Other Public Products
Issued by NWS Grand Forks, ND

Home | Current Version | Previous Version | Text Only | Print | Product List | Glossary Off
Versions: 1 2 3 4 5 6 7 8 9 10 11 12 13 14 15 16 17 18 19 20 21 22 23 24 25 26 27 28 29 30 31 32 33 34 35 36 37 38 39 40 41 42 43 44 45 46 47 48 49 50

000
FPUS83 KFGF 181110
OPUFGF
PRAIRIE TO PINES WEATHER ROUNDUP
NATIONAL WEATHER SERVICE EASTERN NORTH DAKOTA/GRAND FORKS ND
600 AM CDT SAT APR 18 2015

 **SATELLITE DATA USED TO AUGMENT SKY COVER AT AUTOMATED STATIONS**
 *****  WEATHER ACROSS EASTERN NORTH DAKOTA  *****

CITY           SKY/WX    TMP DP  RH WIND       PRES   REMARKS
GRAND FORKS    CLEAR     35  28  75 E7        30.14F
GRAND FORKS AF CLEAR     25  22  87 NE5       30.14F WCI  20
GRAND CITY NWS   N/A     36 N/A N/A E6          N/A
BUXTON         NOT AVBL
DEVILS LAKE    CLEAR     36  28  75 E8        30.10F
FARGO          CLEAR     37  23  56 NE7       30.10S
WAHPETON ARPT  MOSUNNY   43  23  45 E6        30.09R
$$

 *****  WEATHER ACROSS CENTRAL AND WESTERN NORTH DAKOTA  *****

CITY           SKY/WX    TMP DP  RH WIND       PRES   REMARKS
JAMESTOWN      PTCLDY    35  26  69 E5        30.08F
BISMARCK       PTCLDY    39  28  64 NE6       30.07F
MINOT          CLEAR     32  25  75 E6        30.05F
MINOT AFB      CLEAR     32  28  83 E7        30.05F
GARRISON         N/A     39  29  67 E10       30.05F
WILLISTON      CLEAR     48  26  42 S6        30.00F
DICKINSON      PTCLDY    35  26  69 SE10      30.01S
HETTINGER      PTCLDY    30  25  81 CALM      30.03F
$$

 *****  OTHER OBSERVATIONS NORTHEAST NORTH DAKOTA  *****

CITY           SKY/WX    TMP DP  RH WIND       PRES   REMARKS
WALHALLA       FAIR      27  27 100 S6        30.17F WCI  20
LANGDON        FAIR      34  28  80 SE12      30.13F
CAVALIER       FAIR      32  28  86 SE3       30.17F
GRAFTON        FAIR      30  27  86 E9        30.16F WCI  22
CANDO          FAIR      28  25  86 E8        30.11F WCI  20
FORT TOTTEN      N/A     40  28  63 E10       29.95S
ROLLA          FAIR      32  28  86 S5        30.12F
RUGBY          FAIR      34  32  93 E9        30.08F
 ***** THE ABOVE OBSERVATIONS ARE NON NWS ARE NOT QUALITY
        CONTROLLED AND MAY MIS-REPORT RAIN FOR SNOW...
$$

 *****  OTHER OBSERVATIONS SOUTHEAST NORTH DAKOTA *****

CITY           SKY/WX    TMP DP  RH WIND       PRES   REMARKS
COOPERSTOWN    NOT AVBL
VALLEY CITY    FAIR      39  27  60 E7        30.10S
OAKES            N/A     39  27  60 NE10      30.07S
GWINNER        SUNNY     36  21  55 NE8       30.09S
SHEYENNE NWR     N/A     38  22  53 N5        29.95S
BUFFALO        NOT AVBL
WYNDMERE         N/A     37  21  52 N2          N/A
 ***** THE ABOVE OBSERVATIONS ARE NON NWS ARE NOT QUALITY
       CONTROLLED AND MAY MIS-REPORT RAIN FOR SNOW...
$$

  *****  WEATHER ACROSS NORTHERN MINNESOTA  *****

CITY           SKY/WX    TMP DP  RH WIND       PRES   REMARKS
FLAG ISLAND    CLEAR     34  30  86 CALM      30.22R
WARROAD        CLEAR     34  30  86 E7        30.21F
ROSEAU         FAIR      36  30  80 E8        30.20S
HALLOCK        CLEAR     36  28  75 E10       30.17S
THF RVR FALLS  CLEAR     36  28  75 E10       30.17F
HALSTAD        NOT AVBL
FOSSTON        CLEAR     36  27  69 E8        30.14F
BAUDETTE       CLEAR     31  28  89 E6        30.22R
WASKISH        FAIR      32  28  86 CALM      30.20R
CROOKSTON      CLEAR     37  28  70 E8        30.15F
$$
  *****  WEATHER ACROSS CENTRAL AND WEST MINNESOTA  *****

CITY           SKY/WX    TMP DP  RH WIND       PRES   REMARKS
BEMIDJI        CLEAR     32  27  83 NE7       30.15F
PARK RAPIDS    CLEAR     42  30  62 NE6       30.13R
WADENA         CLEAR     39  27  60 NE7       30.11S
DETROIT LAKES  CLEAR     45  30  57 E5        30.12S
MOORHEAD       CLEAR     30  18  59 N3        30.10S
FERGUS FALLS   CLEAR     46  23  39 E10       30.09S
ELBOW LAKE     FAIR      48  28  47 E13       30.08R
MORRIS MN      PTCLDY    48  27  43 E13       30.06S
STAPLES        CLEAR     41  27  56 CALM      30.12S
WHEATON        MOCLDY    36  25  64 CALM      30.10R
$$
  *****  WEATHER ELSEWHERE ACROSS MINNESOTA  *****

CITY           SKY/WX    TMP DP  RH WIND       PRES   REMARKS
DULUTH         CLEAR     40  29  64 E13G20    30.17R
INTRNTL FALLS  CLEAR     29  25  85 NE7       30.22S WCI  22
ELY            CLEAR     34  30  86 E3        30.21R
CLOQUET        CLEAR     39  28  65 E14G21    30.17R
BRAINERD       CLEAR     41  29  62 NE9       30.13S
HIBBING        CLEAR     30  25  81 NE3       30.19R
ALEXANDRIA     PTCLDY    45  25  45 E10       30.10R
SAINT CLOUD    CLEAR     48  27  44 E9        30.10R
MINNEAPOLIS    PTCLDY    54  29  38 NE12      30.08R
$$

  *****  WEATHER ACROSS SOUTH DAKOTA  *****

CITY           SKY/WX    TMP DP  RH WIND       PRES   REMARKS
SIOUX FALLS    CLOUDY    55  28  35 E7        30.00F
BROOKINGS      MOCLDY    54  23  30 NE6       30.03S
WATERTOWN      MOCLDY    51  27  39 E8        30.04S
HURON          CLOUDY    50  28  42 CALM      30.00S
SISSETON         N/A     37  24  59 NW3       30.08S
ABERDEEN       MOCLDY    40  26  57 N7        30.05F
MITCHELL       CLOUDY    55  28  35 E7        29.98F
PIERRE         CLOUDY    53  43  68 N13       29.98F
MOBRIDGE       CLOUDY    49  28  44 CALM      30.01S
RAPID CITY     LGT RAIN  48  45  89 E6        30.01S
$$

  *****  SOME WEATHER IN NEARBY STATES *****

CITY           SKY/WX    TMP DP  RH WIND       PRES   REMARKS
GLASGOW MT     CLEAR     41  29  62 SE14      29.91F
GREAT FALLS MT CLEAR     38  27  64 W7        30.04R
CHEYENNE WY    CLOUDY    35  32  88 N12       29.93F
SCOTTSBLUFF NE LGT RAIN  42  42 100 NW5       29.95F
OMAHA NE       CLOUDY    63  55  75 SE6       29.92F
DES MOINES IA  CLOUDY    63  56  78 E7        29.97F
DAVENPORT IA   PTCLDY    51  45  79 E6        30.00F
CHICAGO IL     PTCLDY    55  47  74 N3        30.02R
EAU CLAIRE WI  PTCLDY    46  29  51 NE6       30.11R
LA CROSSE WI   PTCLDY    49  43  80 CALM      30.07R
$$

  *****  SOME NATIONAL WEATHER *****

CITY           SKY/WX    TMP DP  RH WIND       PRES   REMARKS
LA GUARDIA NY  PTCLDY    57  44  62 CALM      29.97R
RALEIGH NC     CLOUDY    62  61  96 CALM      30.02R
ATLANTA GA     LGT RAIN  63  61  93 NE6       29.98R VSB 1/2
NEW ORLEANS LA LGT RAIN  72  69  90 E5        29.89F
OKLAHOMA CITY  MOCLDY    60  56  86 CALM      29.90F
ALBUQUERQUE NM MOCLDY    37  25  61 SE6       29.99F
SALT LAKE CITY CLEAR     44  37  76 CALM      30.01S
LOS ANGELES CA CLEAR     57  47  69 CALM      30.00S
BOISE ID       CLEAR     46  33  60 CALM      30.07R
SEATTLE WA     CLEAR     48  41  76 N6        30.34R
$$

*** WEATHER ACROSS MANITOBA...SASKATCHEWAN AND ONTARIO ***
                ***ONTARIO***

CITY           SKY/WX    TMP DP  RH WIND       PRES   REMARKS
GERALDTON      CLOUDY    34  30  86 N8        30.23R
THUNDER BAY    PTCLDY    34  30  86 N5        30.26R
SIOUX LOOKOUT  CLEAR     21  19  93 S2        30.25R
TORONTO        MOCLDY    50  41  71 W3        29.96R
BIG TROUT LK   CLOUDY    28  28 100 VRB2      30.24R FOG
PICKLE LAKE    PTCLDY    25  23  93 SW2       30.23
DRYDEN         CLEAR     27  27 100 E3        30.24R
KENORA         CLEAR     34  28  80 SE3       30.23S
$$
                *** MANITOBA***

CITY           SKY/WX    TMP DP  RH WIND       PRES   REMARKS
BRANDON        CLEAR     28  27  93 E9        30.12F WCI  20
DAUPHIN        CLEAR     34  30  86 S6        30.05F
ISLAND LAKE    FOG       30  30 100 SE10      30.22R VSB 3/4 WCI  21
PILOT MOUND      N/A     28  27  93 E10         N/A  WCI  19
THE PAS        LGT RAIN  41  37  87 E8        30.03F
THOMPSON       MOCLDY    34  28  80 CALM      30.11S
WINNIPEG       PTCLDY    36  28  75 SE9       30.20S
$$
                ***SASKATCHEWAN***

CITY           SKY/WX    TMP DP  RH WIND       PRES   REMARKS
ESTEVAN        NOT AVBL
KINDERSLEY     PTCLDY    39  36  87 NW13G20   29.98R
LLOYDMINSTER   CLOUDY    37  34  87 NW15      29.96S
PRINCE ALBERT  CLOUDY    45  34  65 SE8       29.82F
REGINA         PTCLDY    41  30  65 SE23G29   29.90F
YORKTON        CLEAR     39  30  70 S14G20    29.96F
N. BATTLEFORD  CLEAR     39  37  93 NW15      29.93R
LA RONGE       LGT RAIN  39  37  93 E7        29.90F


USA.gov is the U.S. government's official web portal to all federal, state and local government web resources and services.